Time,TemperatureF,DewpointF,PressureIn,WindDirection,WindDirectionDegrees,WindSpeedMPH,WindSpeedGustMPH,Humidity,HourlyPrecipIn,Conditions,Clouds,dailyrainin,SoftwareType,DateUTC
2013-02-07 00:01:00,43.3,0.0,30.14,East,98,0.0,0.0,0,0.00,,,0.00,WUHU216PEETBRO,2013-02-07 08:01:00,
2013-02-07 00:06:00,43.3,0.0,30.14,East,98,0.0,0.0,0,0.00,,,0.00,WUHU216PEETBRO,2013-02-07 08:06:00,
2013-02-07 00:11:00,43.4,0.0,30.14,East,95,0.0,3.1,0,0.00,,,0.00,WUHU216PEETBRO,2013-02-07 08:11:00,
2013-02-07 00:16:00,43.4,0.0,30.14,East,95,0.0,3.1,0,0.00,,,0.00,WUHU216PEETBRO,2013-02-07 08:16:00,
2013-02-07 00:21:00,43.5,0.0,30.14,East,86,0.0,2.4,0,0.00,,,0.00,WUHU216PEETBRO,2013-02-07 08:21:00,
2013-02-07 00:26:00,43.3,0.0,30.14,East,80,0.0,3.2,0,0.00,,,0.00,WUHU216PEETBRO,2013-02-07 08:26:00,
2013-02-07 00:31:00,43.4,0.0,30.14,East,80,0.0,3.2,0,0.00,,,0.00,WUHU216PEETBRO,2013-02-07 08:31:00,
2013-02-07 00:36:00,43.2,0.0,30.14,East,87,1.8,5.5,0,0.00,,,0.00,WUHU216PEETBRO,2013-02-07 08:36:00,
2013-02-07 00:41:00,43.3,0.0,30.14,ESE,105,0.0,5.5,0,0.00,,,0.00,WUHU216PEETBRO,2013-02-07 08:41:00,
2013-02-07 00:46:00,43.2,0.0,30.14,ESE,105,0.0,2.7,0,0.00,,,0.00,WUHU216PEETBRO,2013-02-07 08:46:00,
2013-02-07 00:51:00,43.0,0.0,30.14,ESE,105,0.0,0.0,0,0.00,,,0.00,WUHU216PEETBRO,2013-02-07 08:51:00,
2013-02-07 00:56:00,42.8,0.0,30.14,ESE,105,0.0,0.0,0,0.00,,,0.00,WUHU216PEETBRO,2013-02-07 08:56:00,
2013-02-07 01:01:00,42.9,0.0,30.14,ESE,105,0.0,0.0,0,0.00,,,0.00,WUHU216PEETBRO,2013-02-07 09:01:00,
2013-02-07 01:06:00,42.8,0.0,30.14,ESE,115,0.0,5.0,0,0.00,,,0.00,WUHU216PEETBRO,2013-02-07 09:06:00,
2013-02-07 01:11:00,42.6,0.0,30.14,ESE,115,0.0,5.0,0,0.00,,,0.00,WUHU216PEETBRO,2013-02-07 09:11:00,
2013-02-07 01:16:00,42.9,0.0,30.14,ESE,115,0.0,0.0,0,0.00,,,0.00,WUHU216PEETBRO,2013-02-07 09:16:00,
2013-02-07 01:21:00,42.8,0.0,30.14,ENE,69,4.3,4.8,0,0.00,,,0.00,WUHU216PEETBRO,2013-02-07 09:21:00,
2013-02-07 01:26:00,42.8,0.0,30.13,NE,52,0.0,4.8,0,0.00,,,0.00,WUHU216PEETBRO,2013-02-07 09:26:00,
2013-02-07 01:31:00,42.6,0.0,30.13,ENE,73,0.0,4.9,0,0.00,,,0.00,WUHU216PEETBRO,2013-02-07 09:31:00,
2013-02-07 01:36:00,42.6,0.0,30.13,ENE,63,0.0,4.9,0,0.00,,,0.00,WUHU216PEETBRO,2013-02-07 09:36:00,
2013-02-07 01:41:00,42.7,0.0,30.13,ENE,63,0.0,4.2,0,0.00,,,0.00,WUHU216PEETBRO,2013-02-07 09:41:00,
2013-02-07 01:46:00,42.6,0.0,30.13,ENE,63,0.0,0.0,0,0.00,,,0.00,WUHU216PEETBRO,2013-02-07 09:46:00,
2013-02-07 01:51:00,42.5,0.0,30.13,ENE,63,0.0,0.0,0,0.00,,,0.00,WUHU216PEETBRO,2013-02-07 09:51:00,
2013-02-07 01:56:00,42.4,0.0,30.13,ENE,67,0.0,4.7,0,0.00,,,0.00,WUHU216PEETBRO,2013-02-07 09:56:00,
2013-02-07 02:01:00,42.5,0.0,30.13,ENE,67,0.0,4.7,0,0.00,,,0.00,WUHU216PEETBRO,2013-02-07 10:01:00,
2013-02-07 02:06:00,42.5,0.0,30.13,ENE,57,0.0,4.6,0,0.00,,,0.00,WUHU216PEETBRO,2013-02-07 10:06:00,
2013-02-07 02:11:00,42.6,0.0,30.13,ENE,57,0.0,4.6,0,0.00,,,0.00,WUHU216PEETBRO,2013-02-07 10:11:00,
2013-02-07 02:16:00,42.6,0.0,30.13,SE,145,3.4,5.4,0,0.00,,,0.00,WUHU216PEETBRO,2013-02-07 10:16:00,
2013-02-07 02:21:00,42.5,0.0,30.13,ENE,63,2.1,5.4,0,0.00,,,0.00,WUHU216PEETBRO,2013-02-07 10:21:00,
2013-02-07 02:26:00,42.6,0.0,30.13,ENE,69,0.0,4.5,0,0.00,,,0.00,WUHU216PEETBRO,2013-02-07 10:26:00,
2013-02-07 02:31:00,42.5,0.0,30.13,ENE,69,0.0,4.5,0,0.00,,,0.00,WUHU216PEETBRO,2013-02-07 10:31:00,
2013-02-07 02:36:00,42.6,0.0,30.12,ENE,69,0.0,0.0,0,0.00,,,0.00,WUHU216PEETBRO,2013-02-07 10:36:00,
2013-02-07 02:41:00,42.5,0.0,30.13,SSE,152,0.0,4.5,0,0.00,,,0.00,WUHU216PEETBRO,2013-02-07 10:41:00,
2013-02-07 02:46:00,42.5,0.0,30.13,SSE,152,0.0,4.5,0,0.00,,,0.00,WUHU216PEETBRO,2013-02-07 10:46:00,
2013-02-07 02:51:00,42.5,0.0,30.13,SSE,152,0.0,0.0,0,0.00,,,0.00,WUHU216PEETBRO,2013-02-07 10:51:00,
2013-02-07 02:56:00,42.5,0.0,30.13,SSE,152,0.0,0.0,0,0.00,,,0.00,WUHU216PEETBRO,2013-02-07 10:56:00,
2013-02-07 03:01:00,42.5,0.0,30.13,SSE,152,0.0,0.0,0,0.00,,,0.00,WUHU216PEETBRO,2013-02-07 11:01:00,
2013-02-07 03:06:00,42.6,0.0,30.12,SSE,152,0.0,0.0,0,0.00,,,0.00,WUHU216PEETBRO,2013-02-07 11:06:00,
2013-02-07 03:11:00,42.6,0.0,30.12,SSE,152,0.0,0.0,0,0.00,,,0.00,WUHU216PEETBRO,2013-02-07 11:11:00,
2013-02-07 03:16:00,42.5,0.0,30.12,ESE,114,0.0,2.5,0,0.00,,,0.00,WUHU216PEETBRO,2013-02-07 11:16:00,
2013-02-07 03:21:00,42.6,0.0,30.12,East,79,0.0,5.3,0,0.00,,,0.00,WUHU216PEETBRO,2013-02-07 11:21:00,
2013-02-07 03:26:00,42.7,0.0,30.12,East,79,0.0,5.3,0,0.00,,,0.00,WUHU216PEETBRO,2013-02-07 11:26:00,
2013-02-07 03:31:00,42.5,0.0,30.12,East,79,0.0,4.8,0,0.00,,,0.00,WUHU216PEETBRO,2013-02-07 11:31:00,
2013-02-07 03:36:00,42.6,0.0,30.11,East,83,2.3,4.8,0,0.00,,,0.00,WUHU216PEETBRO,2013-02-07 11:36:00,
2013-02-07 03:41:00,42.6,0.0,30.12,East,83,0.0,4.2,0,0.00,,,0.00,WUHU216PEETBRO,2013-02-07 11:41:00,
2013-02-07 03:46:00,42.6,0.0,30.12,East,83,0.0,3.2,0,0.00,,,0.00,WUHU216PEETBRO,2013-02-07 11:46:00,
2013-02-07 03:51:00,42.5,0.0,30.11,East,83,0.0,0.0,0,0.00,,,0.00,WUHU216PEETBRO,2013-02-07 11:51:00,
2013-02-07 03:56:00,42.5,0.0,30.11,East,83,0.0,0.0,0,0.00,,,0.00,WUHU216PEETBRO,2013-02-07 11:56:00,
2013-02-07 04:01:00,42.3,0.0,30.11,East,83,0.0,0.0,0,0.00,,,0.00,WUHU216PEETBRO,2013-02-07 12:01:00,
2013-02-07 04:06:00,42.4,0.0,30.11,East,87,0.0,2.9,0,0.00,,,0.00,WUHU216PEETBRO,2013-02-07 12:06:00,
2013-02-07 04:11:00,42.2,0.0,30.11,East,87,0.0,2.9,0,0.00,,,0.00,WUHU216PEETBRO,2013-02-07 12:11:00,
2013-02-07 04:16:00,42.1,0.0,30.11,East,87,0.0,0.0,0,0.00,,,0.00,WUHU216PEETBRO,2013-02-07 12:16:00,
2013-02-07 04:21:00,42.1,0.0,30.12,ESE,118,0.0,4.5,0,0.00,,,0.00,WUHU216PEETBRO,2013-02-07 12:21:00,
2013-02-07 04:26:00,42.0,0.0,30.12,South,179,4.9,5.7,0,0.00,,,0.00,WUHU216PEETBRO,2013-02-07 12:26:00,
2013-02-07 04:31:00,41.7,0.0,30.12,South,169,5.7,5.8,0,0.00,,,0.00,WUHU216PEETBRO,2013-02-07 12:31:00,
2013-02-07 04:36:00,41.8,0.0,30.12,SE,124,0.0,5.8,0,0.00,,,0.00,WUHU216PEETBRO,2013-02-07 12:36:00,
2013-02-07 04:41:00,41.9,0.0,30.12,SE,124,0.0,5.3,0,0.00,,,0.00,WUHU216PEETBRO,2013-02-07 12:41:00,
2013-02-07 04:46:00,41.8,0.0,30.11,SE,124,0.0,0.0,0,0.00,,,0.00,WUHU216PEETBRO,2013-02-07 12:46:00,
2013-02-07 04:51:00,41.9,0.0,30.11,East,90,2.9,4.5,0,0.00,,,0.00,WUHU216PEETBRO,2013-02-07 12:51:00,
2013-02-07 04:56:00,41.7,0.0,30.11,SE,128,3.0,4.6,0,0.00,,,0.00,WUHU216PEETBRO,2013-02-07 12:56:00,
2013-02-07 05:01:00,41.6,0.0,30.11,ESE,112,2.7,4.6,0,0.00,,,0.00,WUHU216PEETBRO,2013-02-07 13:01:00,
2013-02-07 05:06:00,41.2,0.0,30.11,ESE,112,0.0,4.2,0,0.00,,,0.00,WUHU216PEETBRO,2013-02-07 13:06:00,
2013-02-07 05:11:00,41.3,0.0,30.11,SE,129,0.0,5.3,0,0.00,,,0.00,WUHU216PEETBRO,2013-02-07 13:11:00,
2013-02-07 05:16:00,41.2,0.0,30.11,ESE,114,0.0,7.8,0,0.00,,,0.00,WUHU216PEETBRO,2013-02-07 13:16:00,
2013-02-07 05:21:00,41.1,0.0,30.11,ESE,114,0.0,7.8,0,0.00,,,0.00,WUHU216PEETBRO,2013-02-07 13:21:00,
2013-02-07 05:26:00,41.2,0.0,30.11,SE,127,0.0,3.5,0,0.00,,,0.00,WUHU216PEETBRO,2013-02-07 13:26:00,
2013-02-07 05:31:00,41.1,0.0,30.12,SE,145,3.2,3.5,0,0.00,,,0.00,WUHU216PEETBRO,2013-02-07 13:31:00,
2013-02-07 05:36:00,40.9,0.0,30.11,SE,127,0.0,5.0,0,0.00,,,0.00,WUHU216PEETBRO,2013-02-07 13:36:00,
2013-02-07 05:41:00,40.9,0.0,30.12,SE,125,0.0,5.6,0,0.00,,,0.00,WUHU216PEETBRO,2013-02-07 13:41:00,
2013-02-07 05:46:00,40.9,0.0,30.12,SE,127,0.0,5.6,0,0.00,,,0.00,WUHU216PEETBRO,2013-02-07 13:46:00,
2013-02-07 05:51:00,40.8,0.0,30.11,ESE,103,0.0,4.3,0,0.00,,,0.00,WUHU216PEETBRO,2013-02-07 13:51:00,
2013-02-07 05:56:00,40.9,0.0,30.12,ESE,103,0.0,3.5,0,0.00,,,0.00,WUHU216PEETBRO,2013-02-07 13:56:00,
2013-02-07 06:01:00,41.1,0.0,30.11,ESE,103,0.0,0.0,0,0.00,,,0.00,WUHU216PEETBRO,2013-02-07 14:01:00,
2013-02-07 06:06:00,41.2,0.0,30.11,ESE,103,0.0,0.0,0,0.00,,,0.00,WUHU216PEETBRO,2013-02-07 14:06:00,
2013-02-07 06:11:00,41.2,0.0,30.11,ESE,103,0.0,0.0,0,0.00,,,0.00,WUHU216PEETBRO,2013-02-07 14:11:00,
2013-02-07 06:16:00,41.1,0.0,30.11,ESE,103,0.0,0.0,0,0.00,,,0.00,WUHU216PEETBRO,2013-02-07 14:16:00,
2013-02-07 06:21:00,41.1,0.0,30.10,ESE,103,0.0,0.0,0,0.00,,,0.00,WUHU216PEETBRO,2013-02-07 14:21:00,
2013-02-07 06:26:00,41.2,0.0,30.11,ENE,73,4.3,4.3,0,0.00,,,0.00,WUHU216PEETBRO,2013-02-07 14:26:00,
2013-02-07 06:31:00,40.8,0.0,30.11,NE,38,2.8,5.9,0,0.00,,,0.00,WUHU216PEETBRO,2013-02-07 14:31:00,
2013-02-07 06:36:00,41.1,0.0,30.11,ENE,62,3.1,5.9,0,0.00,,,0.00,WUHU216PEETBRO,2013-02-07 14:36:00,
2013-02-07 06:41:00,41.1,0.0,30.10,NE,42,2.1,4.5,0,0.00,,,0.00,WUHU216PEETBRO,2013-02-07 14:41:00,
2013-02-07 06:46:00,41.1,0.0,30.10,NE,42,0.0,4.5,0,0.00,,,0.00,WUHU216PEETBRO,2013-02-07 14:46:00,
2013-02-07 06:51:00,41.2,0.0,30.10,NE,40,2.8,4.6,0,0.00,,,0.00,WUHU216PEETBRO,2013-02-07 14:51:00,
2013-02-07 06:56:00,41.2,0.0,30.10,ENE,63,4.6,6.0,0,0.00,,,0.00,WUHU216PEETBRO,2013-02-07 14:56:00,
2013-02-07 07:01:00,41.2,0.0,30.10,ENE,66,0.0,6.0,0,0.00,,,0.00,WUHU216PEETBRO,2013-02-07 15:01:00,
2013-02-07 07:06:00,41.3,0.0,30.10,ENE,62,0.0,5.3,0,0.00,,,0.00,WUHU216PEETBRO,2013-02-07 15:06:00,
2013-02-07 07:11:00,41.3,0.0,30.10,ENE,62,0.0,2.9,0,0.00,,,0.00,WUHU216PEETBRO,2013-02-07 15:11:00,
2013-02-07 07:16:00,41.5,0.0,30.10,ENE,66,3.3,4.7,0,0.00,,,0.00,WUHU216PEETBRO,2013-02-07 15:16:00,
2013-02-07 07:21:00,41.4,0.0,30.10,NE,56,4.4,5.6,0,0.00,,,0.00,WUHU216PEETBRO,2013-02-07 15:21:00,
2013-02-07 07:26:00,41.6,0.0,30.09,ENE,70,3.4,5.6,0,0.00,,,0.00,WUHU216PEETBRO,2013-02-07 15:26:00,
2013-02-07 07:31:00,41.7,0.0,30.09,ENE,63,0.0,5.5,0,0.00,,,0.00,WUHU216PEETBRO,2013-02-07 15:31:00,
2013-02-07 07:36:00,41.8,0.0,30.10,ENE,66,0.0,5.5,0,0.00,,,0.00,WUHU216PEETBRO,2013-02-07 15:36:00,
2013-02-07 07:41:00,41.8,0.0,30.09,ENE,63,0.0,4.2,0,0.00,,,0.00,WUHU216PEETBRO,2013-02-07 15:41:00,
2013-02-07 07:46:00,41.7,0.0,30.10,ENE,64,0.0,3.2,0,0.00,,,0.00,WUHU216PEETBRO,2013-02-07 15:46:00,
2013-02-07 07:51:00,41.8,0.0,30.10,ENE,64,0.0,2.2,0,0.00,,,0.00,WUHU216PEETBRO,2013-02-07 15:51:00,
2013-02-07 07:56:00,41.9,0.0,30.10,ENE,64,0.0,0.0,0,0.00,,,0.00,WUHU216PEETBRO,2013-02-07 15:56:00,
2013-02-07 08:01:00,42.0,0.0,30.10,ENE,64,0.0,0.0,0,0.00,,,0.00,WUHU216PEETBRO,2013-02-07 16:01:00,
2013-02-07 08:06:00,42.0,0.0,30.10,ENE,64,0.0,0.0,0,0.00,,,0.00,WUHU216PEETBRO,2013-02-07 16:06:00,
2013-02-07 08:11:00,42.1,0.0,30.10,ENE,64,0.0,0.0,0,0.00,,,0.00,WUHU216PEETBRO,2013-02-07 16:11:00,
2013-02-07 08:16:00,42.3,0.0,30.10,ENE,64,0.0,0.0,0,0.00,,,0.00,WUHU216PEETBRO,2013-02-07 16:16:00,
2013-02-07 08:21:00,42.5,0.0,30.11,ENE,64,0.0,0.0,0,0.00,,,0.00,WUHU216PEETBRO,2013-02-07 16:21:00,
2013-02-07 08:26:00,42.6,0.0,30.11,ENE,64,0.0,0.0,0,0.00,,,0.00,WUHU216PEETBRO,2013-02-07 16:26:00,
2013-02-07 08:31:00,42.8,0.0,30.11,ENE,64,0.0,0.0,0,0.00,,,0.00,WUHU216PEETBRO,2013-02-07 16:31:00,
2013-02-07 08:36:00,42.9,0.0,30.10,ENE,64,0.0,0.0,0,0.00,,,0.00,WUHU216PEETBRO,2013-02-07 16:36:00,
2013-02-07 08:41:00,43.0,0.0,30.10,ENE,64,0.0,0.0,0,0.00,,,0.00,WUHU216PEETBRO,2013-02-07 16:41:00,
2013-02-07 08:46:00,43.1,0.0,30.10,ENE,64,0.0,0.0,0,0.00,,,0.00,WUHU216PEETBRO,2013-02-07 16:46:00,
2013-02-07 08:51:00,43.2,0.0,30.10,ESE,107,0.0,4.7,0,0.00,,,0.00,WUHU216PEETBRO,2013-02-07 16:51:00,
2013-02-07 08:56:00,43.3,0.0,30.10,ESE,107,0.0,4.7,0,0.00,,,0.00,WUHU216PEETBRO,2013-02-07 16:56:00,
2013-02-07 09:01:00,43.5,0.0,30.10,ESE,107,0.0,0.0,0,0.00,,,0.00,WUHU216PEETBRO,2013-02-07 17:01:00,
2013-02-07 09:06:00,43.7,0.0,30.10,ESE,107,0.0,0.0,0,0.00,,,0.00,WUHU216PEETBRO,2013-02-07 17:06:00,
2013-02-07 09:11:00,43.9,0.0,30.10,ESE,107,0.0,0.0,0,0.00,,,0.00,WUHU216PEETBRO,2013-02-07 17:11:00,
2013-02-07 09:16:00,43.9,0.0,30.10,ESE,107,0.0,0.0,0,0.00,,,0.00,WUHU216PEETBRO,2013-02-07 17:16:00,
2013-02-07 09:21:00,43.6,0.0,30.10,ESE,107,0.0,0.0,0,0.00,,,0.00,WUHU216PEETBRO,2013-02-07 17:21:00,
2013-02-07 09:26:00,43.8,0.0,30.10,ESE,107,0.0,0.0,0,0.00,,,0.00,WUHU216PEETBRO,2013-02-07 17:26:00,
2013-02-07 09:31:00,43.8,0.0,30.10,ESE,107,0.0,0.0,0,0.00,,,0.00,WUHU216PEETBRO,2013-02-07 17:31:00,
2013-02-07 09:36:00,43.8,0.0,30.10,ESE,107,0.0,0.0,0,0.00,,,0.00,WUHU216PEETBRO,2013-02-07 17:36:00,
2013-02-07 09:41:00,43.5,0.0,30.10,SE,131,3.4,7.0,0,0.00,,,0.00,WUHU216PEETBRO,2013-02-07 17:41:00,
2013-02-07 09:46:00,43.6,0.0,30.10,SSE,151,0.0,7.0,0,0.00,,,0.00,WUHU216PEETBRO,2013-02-07 17:46:00,
2013-02-07 09:51:00,43.7,0.0,30.10,SSE,151,2.9,4.4,0,0.00,,,0.00,WUHU216PEETBRO,2013-02-07 17:51:00,
2013-02-07 09:56:00,43.6,0.0,30.11,SSE,148,4.5,6.9,0,0.00,,,0.00,WUHU216PEETBRO,2013-02-07 17:56:00,
2013-02-07 10:01:00,43.3,0.0,30.11,SE,146,4.8,6.9,0,0.00,,,0.00,WUHU216PEETBRO,2013-02-07 18:01:00,
2013-02-07 10:06:00,43.1,0.0,30.11,SE,146,4.2,7.0,0,0.00,,,0.00,WUHU216PEETBRO,2013-02-07 18:06:00,
2013-02-07 10:11:00,43.0,0.0,30.10,SSE,151,5.2,7.0,0,0.00,,,0.00,WUHU216PEETBRO,2013-02-07 18:11:00,
2013-02-07 10:16:00,43.1,0.0,30.11,SSE,149,5.2,6.1,0,0.00,,,0.00,WUHU216PEETBRO,2013-02-07 18:16:00,
2013-02-07 10:21:00,43.2,0.0,30.11,SSE,166,4.5,6.1,0,0.00,,,0.00,WUHU216PEETBRO,2013-02-07 18:21:00,
2013-02-07 10:26:00,43.2,0.0,30.11,ESE,121,2.9,7.5,0,0.00,,,0.00,WUHU216PEETBRO,2013-02-07 18:26:00,
2013-02-07 10:31:00,42.9,0.0,30.11,ESE,114,3.5,8.1,0,0.00,,,0.00,WUHU216PEETBRO,2013-02-07 18:31:00,
2013-02-07 10:36:00,43.0,0.0,30.11,ESE,121,0.0,8.1,0,0.00,,,0.00,WUHU216PEETBRO,2013-02-07 18:36:00,
2013-02-07 10:41:00,43.3,0.0,30.11,South,175,6.1,7.4,0,0.00,,,0.00,WUHU216PEETBRO,2013-02-07 18:41:00,
2013-02-07 10:46:00,43.8,0.0,30.11,SSE,166,5.3,8.0,0,0.00,,,0.00,WUHU216PEETBRO,2013-02-07 18:46:00,
2013-02-07 10:51:00,43.7,0.0,30.11,East,97,2.6,8.0,0,0.00,,,0.00,WUHU216PEETBRO,2013-02-07 18:51:00,
2013-02-07 10:56:00,43.5,0.0,30.11,South,173,5.7,8.3,0,0.00,,,0.00,WUHU216PEETBRO,2013-02-07 18:56:00,
2013-02-07 11:01:00,43.6,0.0,30.11,ESE,107,0.0,8.3,0,0.00,,,0.00,WUHU216PEETBRO,2013-02-07 19:01:00,
2013-02-07 11:06:00,43.6,0.0,30.11,SE,135,0.0,6.8,0,0.00,,,0.00,WUHU216PEETBRO,2013-02-07 19:06:00,
2013-02-07 11:11:00,43.8,0.0,30.11,ESE,108,0.0,7.1,0,0.00,,,0.00,WUHU216PEETBRO,2013-02-07 19:11:00,
2013-02-07 11:16:00,44.5,0.0,30.10,ESE,117,0.0,7.1,0,0.01,,,0.01,WUHU216PEETBRO,2013-02-07 19:16:00,
2013-02-07 11:21:00,44.8,0.0,30.10,ESE,117,0.0,4.3,0,0.01,,,0.01,WUHU216PEETBRO,2013-02-07 19:21:00,
2013-02-07 11:26:00,44.8,0.0,30.10,ESE,117,0.0,0.0,0,0.01,,,0.01,WUHU216PEETBRO,2013-02-07 19:26:00,
2013-02-07 11:31:00,44.0,0.0,30.09,ESE,121,3.2,6.5,0,0.01,,,0.01,WUHU216PEETBRO,2013-02-07 19:31:00,
2013-02-07 11:36:00,43.7,0.0,30.09,ESE,122,3.0,6.8,0,0.01,,,0.01,WUHU216PEETBRO,2013-02-07 19:36:00,
2013-02-07 11:41:00,43.8,0.0,30.09,SSE,165,5.7,6.8,0,0.01,,,0.01,WUHU216PEETBRO,2013-02-07 19:41:00,
2013-02-07 11:46:00,43.5,0.0,30.09,SSW,197,7.0,8.1,0,0.01,,,0.01,WUHU216PEETBRO,2013-02-07 19:46:00,
2013-02-07 11:51:00,42.9,0.0,30.09,SSE,158,4.3,8.1,0,0.02,,,0.02,WUHU216PEETBRO,2013-02-07 19:51:00,
2013-02-07 11:56:00,42.5,0.0,30.09,SSE,148,4.2,8.6,0,0.02,,,0.02,WUHU216PEETBRO,2013-02-07 19:56:00,
2013-02-07 12:01:00,42.6,0.0,30.08,ESE,118,3.4,8.6,0,0.02,,,0.02,WUHU216PEETBRO,2013-02-07 20:01:00,
2013-02-07 12:06:00,42.9,0.0,30.08,ESE,104,3.5,6.1,0,0.02,,,0.02,WUHU216PEETBRO,2013-02-07 20:06:00,
2013-02-07 12:11:00,42.7,0.0,30.08,ESE,117,3.0,6.1,0,0.01,,,0.02,WUHU216PEETBRO,2013-02-07 20:11:00,
2013-02-07 12:16:00,42.2,0.0,30.08,SE,146,4.8,8.8,0,0.01,,,0.02,WUHU216PEETBRO,2013-02-07 20:16:00,
2013-02-07 12:21:00,42.3,0.0,30.08,SE,129,3.5,8.8,0,0.02,,,0.03,WUHU216PEETBRO,2013-02-07 20:21:00,
2013-02-07 12:26:00,42.4,0.0,30.08,East,91,0.0,7.8,0,0.02,,,0.03,WUHU216PEETBRO,2013-02-07 20:26:00,
2013-02-07 12:31:00,42.4,0.0,30.07,ESE,104,2.3,5.3,0,0.03,,,0.04,WUHU216PEETBRO,2013-02-07 20:31:00,
2013-02-07 12:36:00,42.7,0.0,30.07,East,81,2.9,5.3,0,0.03,,,0.04,WUHU216PEETBRO,2013-02-07 20:36:00,
2013-02-07 12:41:00,42.5,0.0,30.06,East,95,0.0,6.4,0,0.04,,,0.05,WUHU216PEETBRO,2013-02-07 20:41:00,
2013-02-07 12:46:00,42.3,0.0,30.06,ESE,110,0.0,6.4,0,0.04,,,0.05,WUHU216PEETBRO,2013-02-07 20:46:00,
2013-02-07 12:51:00,42.1,0.0,30.06,East,100,0.0,5.5,0,0.03,,,0.05,WUHU216PEETBRO,2013-02-07 20:51:00,
2013-02-07 12:56:00,41.9,0.0,30.06,ESE,111,0.0,4.8,0,0.03,,,0.05,WUHU216PEETBRO,2013-02-07 20:56:00,
2013-02-07 13:01:00,41.9,0.0,30.06,SE,129,0.0,5.0,0,0.03,,,0.05,WUHU216PEETBRO,2013-02-07 21:01:00,
2013-02-07 13:06:00,41.9,0.0,30.06,SE,129,0.0,5.0,0,0.03,,,0.05,WUHU216PEETBRO,2013-02-07 21:06:00,
2013-02-07 13:11:00,42.0,0.0,30.06,SE,129,0.0,0.0,0,0.03,,,0.05,WUHU216PEETBRO,2013-02-07 21:11:00,
2013-02-07 13:16:00,41.9,0.0,30.06,ESE,107,1.7,5.3,0,0.03,,,0.05,WUHU216PEETBRO,2013-02-07 21:16:00,
2013-02-07 13:21:00,41.8,0.0,30.06,SSE,148,0.0,5.4,0,0.02,,,0.05,WUHU216PEETBRO,2013-02-07 21:21:00,
2013-02-07 13:26:00,42.2,0.0,30.06,ESE,111,0.0,6.1,0,0.02,,,0.05,WUHU216PEETBRO,2013-02-07 21:26:00,
2013-02-07 13:31:00,42.4,0.0,30.06,ESE,118,0.0,6.1,0,0.01,,,0.05,WUHU216PEETBRO,2013-02-07 21:31:00,
2013-02-07 13:36:00,42.6,0.0,30.05,ESE,118,0.0,5.9,0,0.01,,,0.05,WUHU216PEETBRO,2013-02-07 21:36:00,
2013-02-07 13:41:00,42.3,0.0,30.06,SE,145,2.9,4.2,0,0.00,,,0.05,WUHU216PEETBRO,2013-02-07 21:41:00,
2013-02-07 13:46:00,42.2,0.0,30.05,ESE,110,2.8,4.8,0,0.00,,,0.05,WUHU216PEETBRO,2013-02-07 21:46:00,
2013-02-07 13:51:00,42.3,0.0,30.05,East,88,0.0,6.0,0,0.00,,,0.05,WUHU216PEETBRO,2013-02-07 21:51:00,
2013-02-07 13:56:00,42.2,0.0,30.05,East,88,0.0,6.0,0,0.00,,,0.05,WUHU216PEETBRO,2013-02-07 21:56:00,
2013-02-07 14:01:00,42.5,0.0,30.05,East,88,0.0,0.0,0,0.00,,,0.05,WUHU216PEETBRO,2013-02-07 22:01:00,
2013-02-07 14:06:00,42.7,0.0,30.05,East,88,0.0,0.0,0,0.00,,,0.05,WUHU216PEETBRO,2013-02-07 22:06:00,
2013-02-07 14:11:00,43.2,0.0,30.05,East,88,0.0,0.0,0,0.00,,,0.05,WUHU216PEETBRO,2013-02-07 22:11:00,
2013-02-07 14:16:00,43.4,0.0,30.05,East,88,0.0,0.0,0,0.00,,,0.05,WUHU216PEETBRO,2013-02-07 22:16:00,
2013-02-07 14:21:00,44.7,0.0,30.05,ESE,110,0.0,3.4,0,0.00,,,0.05,WUHU216PEETBRO,2013-02-07 22:21:00,
2013-02-07 14:26:00,46.5,0.0,30.04,ESE,110,0.0,3.4,0,0.00,,,0.05,WUHU216PEETBRO,2013-02-07 22:26:00,
2013-02-07 14:31:00,46.7,0.0,30.05,SE,145,2.4,5.5,0,0.00,,,0.05,WUHU216PEETBRO,2013-02-07 22:31:00,
2013-02-07 14:36:00,46.2,0.0,30.04,East,101,0.0,5.5,0,0.00,,,0.05,WUHU216PEETBRO,2013-02-07 22:36:00,
2013-02-07 14:41:00,46.3,0.0,30.04,East,101,0.0,3.3,0,0.00,,,0.05,WUHU216PEETBRO,2013-02-07 22:41:00,
2013-02-07 14:46:00,46.2,0.0,30.04,NE,47,0.0,3.4,0,0.00,,,0.05,WUHU216PEETBRO,2013-02-07 22:46:00,
2013-02-07 14:51:00,46.7,0.0,30.04,NE,47,0.0,3.4,0,0.00,,,0.05,WUHU216PEETBRO,2013-02-07 22:51:00,
2013-02-07 14:56:00,47.1,0.0,30.04,ESE,121,2.9,4.3,0,0.00,,,0.05,WUHU216PEETBRO,2013-02-07 22:56:00,
2013-02-07 15:01:00,46.3,0.0,30.03,East,90,2.1,5.3,0,0.00,,,0.05,WUHU216PEETBRO,2013-02-07 23:01:00,
2013-02-07 15:06:00,46.0,0.0,30.03,East,90,0.0,5.3,0,0.00,,,0.05,WUHU216PEETBRO,2013-02-07 23:06:00,
2013-02-07 15:11:00,46.8,0.0,30.03,SSE,162,4.5,8.8,0,0.00,,,0.05,WUHU216PEETBRO,2013-02-07 23:11:00,
2013-02-07 15:16:00,45.7,0.0,30.03,ESE,118,0.0,8.8,0,0.00,,,0.05,WUHU216PEETBRO,2013-02-07 23:16:00,
2013-02-07 15:21:00,45.9,0.0,30.03,SE,125,2.5,7.4,0,0.00,,,0.05,WUHU216PEETBRO,2013-02-07 23:21:00,
2013-02-07 15:26:00,45.8,0.0,30.03,SSE,148,0.0,4.9,0,0.00,,,0.05,WUHU216PEETBRO,2013-02-07 23:26:00,
2013-02-07 15:31:00,45.7,0.0,30.03,SSE,148,0.0,3.0,0,0.00,,,0.05,WUHU216PEETBRO,2013-02-07 23:31:00,
2013-02-07 15:36:00,46.0,0.0,30.03,SSE,148,0.0,0.0,0,0.00,,,0.05,WUHU216PEETBRO,2013-02-07 23:36:00,
2013-02-07 15:41:00,46.3,0.0,30.03,SSE,148,0.0,0.0,0,0.00,,,0.05,WUHU216PEETBRO,2013-02-07 23:41:00,
2013-02-07 15:46:00,46.2,0.0,30.02,SSE,148,0.0,0.0,0,0.00,,,0.05,WUHU216PEETBRO,2013-02-07 23:46:00,
2013-02-07 15:51:00,45.8,0.0,30.02,SSE,148,0.0,0.0,0,0.00,,,0.05,WUHU216PEETBRO,2013-02-07 23:51:00,
2013-02-07 15:56:00,45.4,0.0,30.02,SSE,148,0.0,0.0,0,0.00,,,0.05,WUHU216PEETBRO,2013-02-07 23:56:00,
2013-02-07 16:01:00,45.7,0.0,30.02,ESE,118,0.0,4.2,0,0.00,,,0.05,WUHU216PEETBRO,2013-02-08 00:01:00,
2013-02-07 16:06:00,46.6,0.0,30.02,ESE,118,0.0,4.2,0,0.00,,,0.05,WUHU216PEETBRO,2013-02-08 00:06:00,
2013-02-07 16:11:00,46.7,0.0,30.02,ESE,118,0.0,0.0,0,0.00,,,0.05,WUHU216PEETBRO,2013-02-08 00:11:00,
2013-02-07 16:16:00,46.2,0.0,30.02,ESE,118,0.0,0.0,0,0.00,,,0.05,WUHU216PEETBRO,2013-02-08 00:16:00,
2013-02-07 16:21:00,45.6,0.0,30.02,ESE,118,0.0,0.0,0,0.00,,,0.05,WUHU216PEETBRO,2013-02-08 00:21:00,
2013-02-07 16:26:00,45.1,0.0,30.02,ESE,118,0.0,0.0,0,0.00,,,0.05,WUHU216PEETBRO,2013-02-08 00:26:00,
2013-02-07 16:31:00,45.1,0.0,30.02,ESE,118,0.0,0.0,0,0.00,,,0.05,WUHU216PEETBRO,2013-02-08 00:31:00,
2013-02-07 16:36:00,44.8,0.0,30.02,ESE,118,0.0,0.0,0,0.00,,,0.05,WUHU216PEETBRO,2013-02-08 00:36:00,
2013-02-07 16:41:00,44.6,0.0,30.01,ESE,118,0.0,0.0,0,0.00,,,0.05,WUHU216PEETBRO,2013-02-08 00:41:00,
2013-02-07 16:46:00,44.3,0.0,30.01,ESE,118,0.0,0.0,0,0.00,,,0.05,WUHU216PEETBRO,2013-02-08 00:46:00,
2013-02-07 16:51:00,44.1,0.0,30.01,East,84,1.9,4.8,0,0.00,,,0.05,WUHU216PEETBRO,2013-02-08 00:51:00,
2013-02-07 16:56:00,43.8,0.0,30.01,East,84,0.0,4.8,0,0.00,,,0.05,WUHU216PEETBRO,2013-02-08 00:56:00,
2013-02-07 17:01:00,43.2,0.0,30.01,SE,124,4.1,7.2,0,0.00,,,0.05,WUHU216PEETBRO,2013-02-08 01:01:00,
2013-02-07 17:06:00,43.5,0.0,30.01,ESE,107,3.0,7.2,0,0.00,,,0.05,WUHU216PEETBRO,2013-02-08 01:06:00,
2013-02-07 17:11:00,43.5,0.0,30.01,SE,128,0.0,4.5,0,0.00,,,0.05,WUHU216PEETBRO,2013-02-08 01:11:00,
2013-02-07 17:16:00,43.3,0.0,30.01,SE,128,0.0,3.0,0,0.00,,,0.05,WUHU216PEETBRO,2013-02-08 01:16:00,
2013-02-07 17:21:00,43.0,0.0,30.01,SE,128,0.0,0.0,0,0.00,,,0.05,WUHU216PEETBRO,2013-02-08 01:21:00,
2013-02-07 17:26:00,42.9,0.0,30.01,SE,128,0.0,0.0,0,0.00,,,0.05,WUHU216PEETBRO,2013-02-08 01:26:00,
2013-02-07 17:31:00,42.7,0.0,30.01,SE,128,0.0,0.0,0,0.00,,,0.05,WUHU216PEETBRO,2013-02-08 01:31:00,
2013-02-07 17:36:00,42.0,0.0,30.01,SE,128,0.0,0.0,0,0.00,,,0.05,WUHU216PEETBRO,2013-02-08 01:36:00,
2013-02-07 17:41:00,41.8,0.0,30.01,SE,128,0.0,0.0,0,0.00,,,0.05,WUHU216PEETBRO,2013-02-08 01:41:00,
2013-02-07 17:46:00,42.0,0.0,30.01,SE,128,0.0,0.0,0,0.00,,,0.05,WUHU216PEETBRO,2013-02-08 01:46:00,
2013-02-07 17:51:00,42.1,0.0,30.01,SE,128,0.0,0.0,0,0.00,,,0.05,WUHU216PEETBRO,2013-02-08 01:51:00,
2013-02-07 17:56:00,41.9,0.0,30.01,SE,128,0.0,0.0,0,0.01,,,0.06,WUHU216PEETBRO,2013-02-08 01:56:00,
2013-02-07 18:01:00,41.9,0.0,30.01,SE,128,0.0,0.0,0,0.01,,,0.06,WUHU216PEETBRO,2013-02-08 02:01:00,
2013-02-07 18:06:00,41.7,0.0,30.01,SE,128,0.0,0.0,0,0.01,,,0.06,WUHU216PEETBRO,2013-02-08 02:06:00,
2013-02-07 18:11:00,41.7,0.0,30.01,ENE,76,2.9,4.6,0,0.01,,,0.06,WUHU216PEETBRO,2013-02-08 02:11:00,
2013-02-07 18:16:00,41.7,0.0,30.01,ENE,70,0.0,4.6,0,0.01,,,0.06,WUHU216PEETBRO,2013-02-08 02:16:00,
2013-02-07 18:21:00,41.7,0.0,30.01,ENE,63,0.0,4.4,0,0.01,,,0.06,WUHU216PEETBRO,2013-02-08 02:21:00,
2013-02-07 18:26:00,41.6,0.0,30.01,ENE,57,3.5,4.4,0,0.01,,,0.06,WUHU216PEETBRO,2013-02-08 02:26:00,
2013-02-07 18:31:00,41.6,0.0,30.01,NNE,25,3.3,4.3,0,0.01,,,0.06,WUHU216PEETBRO,2013-02-08 02:31:00,
2013-02-07 18:36:00,41.4,0.0,30.00,NNE,23,3.4,4.3,0,0.01,,,0.06,WUHU216PEETBRO,2013-02-08 02:36:00,
2013-02-07 18:41:00,41.5,0.0,30.00,NE,38,4.3,4.3,0,0.01,,,0.06,WUHU216PEETBRO,2013-02-08 02:41:00,
2013-02-07 18:46:00,41.4,0.0,30.00,ENE,59,2.5,4.6,0,0.01,,,0.06,WUHU216PEETBRO,2013-02-08 02:46:00,
2013-02-07 18:51:00,41.2,0.0,30.00,ENE,62,3.0,5.3,0,0.01,,,0.06,WUHU216PEETBRO,2013-02-08 02:51:00,
2013-02-07 18:56:00,41.3,0.0,30.00,ENE,64,3.4,5.3,0,0.00,,,0.06,WUHU216PEETBRO,2013-02-08 02:56:00,
2013-02-07 19:01:00,41.1,0.0,30.00,ENE,60,4.7,5.3,0,0.00,,,0.06,WUHU216PEETBRO,2013-02-08 03:01:00,
2013-02-07 19:06:00,41.0,0.0,29.99,NE,55,4.6,5.3,0,0.00,,,0.06,WUHU216PEETBRO,2013-02-08 03:06:00,
2013-02-07 19:11:00,40.9,0.0,29.99,ENE,74,3.2,6.2,0,0.00,,,0.06,WUHU216PEETBRO,2013-02-08 03:11:00,
2013-02-07 19:16:00,40.9,0.0,29.99,ENE,57,0.0,6.2,0,0.00,,,0.06,WUHU216PEETBRO,2013-02-08 03:16:00,
2013-02-07 19:21:00,40.8,0.0,30.00,ENE,57,0.0,6.0,0,0.00,,,0.06,WUHU216PEETBRO,2013-02-08 03:21:00,
2013-02-07 19:26:00,40.9,0.0,30.00,ENE,57,0.0,3.0,0,0.00,,,0.06,WUHU216PEETBRO,2013-02-08 03:26:00,
2013-02-07 19:31:00,40.9,0.0,30.00,ENE,57,0.0,3.0,0,0.00,,,0.06,WUHU216PEETBRO,2013-02-08 03:31:00,
2013-02-07 19:36:00,41.0,0.0,29.99,ENE,57,0.0,0.0,0,0.00,,,0.06,WUHU216PEETBRO,2013-02-08 03:36:00,
2013-02-07 19:41:00,41.1,0.0,29.99,East,79,0.0,5.0,0,0.00,,,0.06,WUHU216PEETBRO,2013-02-08 03:41:00,
2013-02-07 19:46:00,41.3,0.0,29.99,East,79,0.0,5.0,0,0.00,,,0.06,WUHU216PEETBRO,2013-02-08 03:46:00,
2013-02-07 19:51:00,41.3,0.0,29.99,East,79,0.0,0.0,0,0.00,,,0.06,WUHU216PEETBRO,2013-02-08 03:51:00,
2013-02-07 19:56:00,41.3,0.0,29.99,East,79,0.0,0.0,0,0.00,,,0.06,WUHU216PEETBRO,2013-02-08 03:56:00,
2013-02-07 20:01:00,41.1,0.0,29.99,East,79,0.0,0.0,0,0.00,,,0.06,WUHU216PEETBRO,2013-02-08 04:01:00,
2013-02-07 20:06:00,40.6,0.0,29.99,East,79,0.0,0.0,0,0.00,,,0.06,WUHU216PEETBRO,2013-02-08 04:06:00,
2013-02-07 20:11:00,40.4,0.0,29.99,SE,128,0.0,5.5,0,0.00,,,0.06,WUHU216PEETBRO,2013-02-08 04:11:00,
2013-02-07 20:16:00,40.5,0.0,29.99,SE,143,0.0,5.5,0,0.00,,,0.06,WUHU216PEETBRO,2013-02-08 04:16:00,
2013-02-07 20:21:00,40.5,0.0,29.99,ESE,103,0.0,4.5,0,0.00,,,0.06,WUHU216PEETBRO,2013-02-08 04:21:00,
2013-02-07 20:26:00,40.4,0.0,29.99,ESE,103,0.0,4.5,0,0.00,,,0.06,WUHU216PEETBRO,2013-02-08 04:26:00,
2013-02-07 20:31:00,40.7,0.0,29.99,ESE,103,0.0,0.0,0,0.00,,,0.06,WUHU216PEETBRO,2013-02-08 04:31:00,
2013-02-07 20:36:00,40.5,0.0,29.99,ESE,103,0.0,0.0,0,0.00,,,0.06,WUHU216PEETBRO,2013-02-08 04:36:00,
2013-02-07 20:41:00,40.5,0.0,29.99,ESE,103,0.0,0.0,0,0.00,,,0.06,WUHU216PEETBRO,2013-02-08 04:41:00,
2013-02-07 20:46:00,40.5,0.0,29.98,ESE,103,0.0,0.0,0,0.00,,,0.06,WUHU216PEETBRO,2013-02-08 04:46:00,
2013-02-07 20:51:00,40.5,0.0,29.99,ESE,103,0.0,0.0,0,0.00,,,0.06,WUHU216PEETBRO,2013-02-08 04:51:00,
2013-02-07 20:56:00,40.3,0.0,29.98,NE,46,0.0,2.8,0,0.00,,,0.06,WUHU216PEETBRO,2013-02-08 04:56:00,
2013-02-07 21:00:00,40.4,0.0,29.98,NE,46,0.0,2.8,0,0.00,,,0.06,WUHU216PEETBRO,2013-02-08 05:00:00,
2013-02-07 21:06:00,40.3,0.0,29.98,NE,46,0.0,0.0,0,0.00,,,0.06,WUHU216PEETBRO,2013-02-08 05:06:00,
2013-02-07 21:10:00,40.2,0.0,29.98,ENE,57,4.9,5.2,0,0.00,,,0.06,WUHU216PEETBRO,2013-02-08 05:10:00,
2013-02-07 21:15:00,40.0,0.0,29.98,NE,53,3.0,5.7,0,0.00,,,0.06,WUHU216PEETBRO,2013-02-08 05:15:00,
2013-02-07 21:20:00,40.0,0.0,29.98,NE,52,2.7,5.7,0,0.00,,,0.06,WUHU216PEETBRO,2013-02-08 05:20:00,
2013-02-07 21:25:00,40.0,0.0,29.98,NE,47,0.0,4.4,0,0.00,,,0.06,WUHU216PEETBRO,2013-02-08 05:25:00,
2013-02-07 21:30:00,39.8,0.0,29.98,NE,42,3.0,5.6,0,0.00,,,0.06,WUHU216PEETBRO,2013-02-08 05:30:00,
2013-02-07 21:35:00,39.8,0.0,29.98,ENE,63,0.0,5.6,0,0.00,,,0.06,WUHU216PEETBRO,2013-02-08 05:35:00,
2013-02-07 21:40:00,39.6,0.0,29.98,ENE,63,3.2,4.6,0,0.00,,,0.06,WUHU216PEETBRO,2013-02-08 05:40:00,
2013-02-07 21:45:00,39.5,0.0,29.98,East,80,3.2,4.9,0,0.00,,,0.06,WUHU216PEETBRO,2013-02-08 05:45:00,
2013-02-07 21:50:00,39.4,0.0,29.98,ENE,60,0.0,4.9,0,0.00,,,0.06,WUHU216PEETBRO,2013-02-08 05:50:00,
2013-02-07 21:55:00,39.0,0.0,29.98,ENE,60,0.0,3.2,0,0.00,,,0.06,WUHU216PEETBRO,2013-02-08 05:55:00,
2013-02-07 22:00:00,39.0,0.0,29.98,ENE,60,0.0,0.0,0,0.00,,,0.06,WUHU216PEETBRO,2013-02-08 06:00:00,
2013-02-07 22:05:00,38.9,0.0,29.98,ENE,60,0.0,0.0,0,0.00,,,0.06,WUHU216PEETBRO,2013-02-08 06:05:00,
2013-02-07 22:10:00,38.8,0.0,29.98,ENE,60,0.0,0.0,0,0.00,,,0.06,WUHU216PEETBRO,2013-02-08 06:10:00,
2013-02-07 22:15:00,38.7,0.0,29.98,ENE,60,0.0,0.0,0,0.00,,,0.06,WUHU216PEETBRO,2013-02-08 06:15:00,
2013-02-07 22:20:00,38.8,0.0,29.98,ENE,60,0.0,0.0,0,0.00,,,0.06,WUHU216PEETBRO,2013-02-08 06:20:00,
2013-02-07 22:25:00,38.7,0.0,29.98,ENE,60,0.0,0.0,0,0.00,,,0.06,WUHU216PEETBRO,2013-02-08 06:25:00,
2013-02-07 22:30:00,38.8,0.0,29.97,ENE,60,0.0,0.0,0,0.00,,,0.06,WUHU216PEETBRO,2013-02-08 06:30:00,
2013-02-07 22:35:00,38.4,0.0,29.97,ENE,60,0.0,0.0,0,0.00,,,0.06,WUHU216PEETBRO,2013-02-08 06:35:00,
2013-02-07 22:40:00,38.3,0.0,29.97,ENE,60,0.0,0.0,0,0.00,,,0.06,WUHU216PEETBRO,2013-02-08 06:40:00,
2013-02-07 22:45:00,38.5,0.0,29.97,ENE,60,0.0,0.0,0,0.00,,,0.06,WUHU216PEETBRO,2013-02-08 06:45:00,
2013-02-07 22:50:00,38.2,0.0,29.97,ENE,60,0.0,0.0,0,0.00,,,0.06,WUHU216PEETBRO,2013-02-08 06:50:00,
2013-02-07 22:55:00,38.3,0.0,29.97,ENE,60,0.0,0.0,0,0.00,,,0.06,WUHU216PEETBRO,2013-02-08 06:55:00,
2013-02-07 23:00:00,38.3,0.0,29.97,ENE,60,0.0,0.0,0,0.00,,,0.06,WUHU216PEETBRO,2013-02-08 07:00:00,
2013-02-07 23:05:00,38.0,0.0,29.97,NE,43,0.0,4.9,0,0.00,,,0.06,WUHU216PEETBRO,2013-02-08 07:05:00,
2013-02-07 23:10:00,38.1,0.0,29.97,NE,52,3.5,4.9,0,0.00,,,0.06,WUHU216PEETBRO,2013-02-08 07:10:00,
2013-02-07 23:16:00,38.1,0.0,29.97,ENE,70,3.2,4.5,0,0.00,,,0.06,WUHU216PEETBRO,2013-02-08 07:16:00,
2013-02-07 23:21:00,38.2,0.0,29.97,ENE,57,0.0,4.5,0,0.00,,,0.06,WUHU216PEETBRO,2013-02-08 07:21:00,
2013-02-07 23:26:00,38.1,0.0,29.96,ENE,57,0.0,3.5,0,0.00,,,0.06,WUHU216PEETBRO,2013-02-08 07:26:00,
2013-02-07 23:30:00,38.1,0.0,29.96,ENE,57,0.0,0.0,0,0.00,,,0.06,WUHU216PEETBRO,2013-02-08 07:30:00,
2013-02-07 23:36:00,38.0,0.0,29.96,ENE,57,0.0,0.0,0,0.00,,,0.06,WUHU216PEETBRO,2013-02-08 07:36:00,
2013-02-07 23:41:00,38.2,0.0,29.96,ENE,57,0.0,0.0,0,0.00,,,0.06,WUHU216PEETBRO,2013-02-08 07:41:00,
2013-02-07 23:46:00,38.0,0.0,29.96,ENE,57,0.0,0.0,0,0.00,,,0.06,WUHU216PEETBRO,2013-02-08 07:46:00,
2013-02-07 23:50:00,38.0,0.0,29.96,ENE,57,0.0,0.0,0,0.00,,,0.06,WUHU216PEETBRO,2013-02-08 07:50:00,
2013-02-07 23:56:00,38.0,0.0,29.96,ENE,57,0.0,0.0,0,0.00,,,0.06,WUHU216PEETBRO,2013-02-08 07:56:00,